This is the latest recevied weather packets stored in our database for station/object NI4CE-14. If no packets are shown the sender has not sent any weather packets the latest 10 day(s).
| Time | Temp. | Humidity | Pressure | Rain* | Wind** | Luminosity | Snow |
|---|---|---|---|---|---|---|---|
| 1777989795 | 28.33° C | 100% | 1014.3 hPa | 0 mm | - | - | - |
| 1777989495 | 28.33° C | 100% | 1014.3 hPa | 0 mm | - | - | - |
| 1777989195 | 28.33° C | 100% | 1014.3 hPa | 0 mm | - | - | - |
| 1777988895 | 28.33° C | 100% | 1014.1 hPa | 0 mm | - | - | - |
| 1777988595 | 27.78° C | 100% | 1014 hPa | 0 mm | - | - | - |
| 1777988295 | 27.78° C | 100% | 1014 hPa | 0 mm | - | - | - |
| 1777987995 | 27.78° C | 100% | 1014 hPa | 0 mm | - | - | - |
| 1777987695 | 27.22° C | 100% | 1013.8 hPa | 0 mm | - | - | - |
| 1777987395 | 27.22° C | 100% | 1013.8 hPa | 0 mm | - | - | - |
| 1777987095 | 27.22° C | 100% | 1013.8 hPa | 0 mm | - | - | - |
| 1777986795 | 27.22° C | 100% | 1013.8 hPa | 0 mm | - | - | - |
| 1777986495 | 26.67° C | 100% | 1013.8 hPa | 0 mm | - | - | - |
| 1777986195 | 26.67° C | 100% | 1013.8 hPa | 0 mm | - | - | - |
| 1777985895 | 26.67° C | 100% | 1013.8 hPa | 0 mm | - | - | - |
| 1777985595 | 26.67° C | 100% | 1013.8 hPa | 0 mm | - | - | - |
| 1777985295 | 26.67° C | 100% | 1013.8 hPa | 0 mm | - | - | - |
| 1777984995 | 26.11° C | 100% | 1013.8 hPa | 0 mm | - | - | - |
| 1777984695 | 26.11° C | 100% | 1013.8 hPa | 0 mm | - | - | - |
| 1777984395 | 26.11° C | 100% | 1013.7 hPa | 0 mm | - | - | - |
| 1777984205 | 25° C | 100% | 1013.8 hPa | 0 mm | - | - | - |
| 1777984095 | 25.56° C | 100% | 1013.7 hPa | 0 mm | - | - | - |
| 1777983795 | 25.56° C | 100% | 1013.8 hPa | 0 mm | - | - | - |
| 1777983495 | 25° C | 100% | 1013.8 hPa | 0 mm | - | - | - |
| 1777983195 | 25° C | 100% | 1013.8 hPa | 0 mm | - | - | - |
| 1777982895 | 25° C | 100% | 1013.8 hPa | 0 mm | - | - | - |
* Rain latest hour (hover to see other rain measurements)
** Current wind speed in m/s (hover to see current wind gust speed)